Location: *
(24.1434°N, 56.8729°E)
Time: 05:23:53
(UTC+00:00)

Cosmos 1703 - Pass Details

Date: 09 April 2020
Orbit: 524 x 540 km, 82.5° (Epoch: 27 May)

Event Time Altitude Azimuth Distance (km) Brightness Sun altitude
Rises 15:55:46 0° 356° (N) 2,693 7.1 -19.4°
Reaches altitude 10° 15:57:55 10° 358° (N) 1,800 6.2 -19.9°
Maximum altitude 16:01:53 79° 85° (E) 553 3.1 -20.7°
Enters shadow 16:02:36 58° 157° (SSE) 633 3.3 -20.9°
